Location: Kapuskasing
(49.3803°N, 82.4001°W)
Time: 14:49:30
(UTC-04:00)

ISS - Visible Passes

Search period start: 06 July 2020 00:00
Search period end: 16 July 2020 00:00
Orbit: 417 x 421 km, 51.6° (Epoch: 06 July)

Date Brightness Start Highest point End Pass type
(mag) Time Alt. Az. Time Alt. Az. Time Alt. Az.
06 Jul -1.6 02:02:42 15° ESE 02:02:42 15° ESE 02:03:50 10° E visible
06 Jul -3.8 03:35:38 20° WSW 03:37:49 78° SSE 03:41:11 10° ENE visible
07 Jul -3.7 02:49:28 43° SSW 02:50:14 56° SSE 02:53:33 10° ENE visible
07 Jul -3.2 04:23:45 10° W 04:27:05 59° N 04:30:25 10° ENE visible
08 Jul -2.9 02:03:15 35° ESE 02:03:15 35° ESE 02:05:51 10° E visible
08 Jul -3.5 03:36:11 11° W 03:39:24 68° NNW 03:42:45 10° ENE visible
09 Jul -1.7 01:16:59 17° E 01:16:59 17° E 01:18:03 10° E visible
09 Jul -3.8 02:49:53 25° WSW 02:51:43 82° NNW 02:55:06 10° ENE visible
09 Jul -3.0 04:25:24 10° WNW 04:28:43 56° N 04:32:02 10° E visible
10 Jul -3.9 02:03:31 58° SW 02:04:05 77° SSE 02:07:26 10° ENE visible
10 Jul -3.1 03:37:41 10° W 03:41:00 56° N 03:44:19 10° ENE visible
11 Jul -3.4 01:17:00 48° ESE 01:17:00 48° ESE 01:19:45 10° ENE visible
11 Jul -3.2 02:49:56 10° W 02:53:16 59° N 02:56:37 10° ENE visible
11 Jul -3.4 04:26:55 10° WNW 04:30:18 70° NNE 04:33:38 10° E visible
12 Jul -2.4 00:30:15 25° E 00:30:15 25° E 00:32:00 10° E visible
12 Jul -3.5 02:03:07 17° W 02:05:33 68° NNW 02:08:54 10° ENE visible
12 Jul -3.2 03:39:14 10° WNW 03:42:34 61° N 03:45:55 10° E visible
12 Jul -2.0 23:42:51 19° ESE 23:42:51 19° ESE 23:44:10 10° E visible
13 Jul -3.8 01:15:38 20° WSW 01:17:50 83° NNW 01:21:12 10° ENE visible
13 Jul -3.1 02:51:30 10° WNW 02:54:50 56° N 02:58:09 10° E visible
13 Jul -3.8 04:28:22 10° WNW 04:31:44 73° SSW 04:35:05 10° ESE visible
13 Jul -2.3 22:51:21 10° S 22:53:44 18° SE 22:56:08 10° E visible
14 Jul -3.9 00:26:47 10° WSW 00:30:09 77° SSE 00:33:31 10° ENE visible
14 Jul -3.1 02:03:45 10° W 02:07:04 56° N 02:10:23 10° ENE visible
14 Jul -3.8 03:40:40 10° WNW 03:44:03 86° NNE 03:47:25 10° ESE visible
14 Jul -3.8 23:39:11 10° SW 23:42:28 55° SSE 23:45:47 10° ENE visible
15 Jul -3.2 01:15:58 10° W 01:19:18 60° N 01:22:38 10° ENE visible
15 Jul -3.5 02:52:58 10° WNW 02:56:19 70° NNE 02:59:40 10° E visible
15 Jul -3.2 04:29:52 10° W 04:33:00 36° SSW 04:36:07 10° SE visible
15 Jul -3.3 22:51:41 10° SW 22:54:50 38° SSE 22:58:00 10° E visible
